Terminal Aerodrome Forecast
Issued by NWS

Home | Current Version | Previous Version | Text Only | Print | Product List | Glossary On
Versions: 1 2 3 4 5 6 7 8 9 10 11 12
000
FTUS46 KHNX 220500
TAFFAT
TAF
KFAT 220520Z 2206/2306 30010KT P6SM SCT150
     FM221000 31006KT P6SM SCT200
     FM230200 31010KT P6SM FEW200=

USA.gov is the U.S. government's official web portal to all federal, state and local government web resources and services.